Rockford, IL

7:24 PM CST on February 27, 2017 (GMT -0600)
Greater Rockford

Weather History for KRFD - October, 2014

Change the Weather History Date:

Monday, October 13, 2014

  Actual Average Record
Temperature  
Mean Temperature 61 °F 53 °F  
Max Temperature 67 °F 64 °F 87 °F (1975)
Min Temperature 55 °F 41 °F 22 °F (1988)
Degree Days  
Heating Degree Days 4 13  
Month to date heating degree days 158 139  
Since 1 July heating degree days 299 270  
Cooling Degree Days 0 0  
Month to date cooling degree days 3 8  
Year to date cooling degree days 729 819  
Growing Degree Days 10 (Base 50)    
Moisture  
Dew Point 57 °F    
Average Humidity 87    
Maximum Humidity 93    
Minimum Humidity 81    
Precipitation  
Precipitation 0.82 in 0.08 in 2.56 in (1960)
Month to date precipitation 1.66 1.15  
Year to date precipitation 29.91 30.16  
Snow  
Snow 0.00 in 0.00 in T in (1986)
Month to date snowfall T 0.0  
Since 1 July snowfall T 0.0  
Since 1 September snowfall T 0.0  
Snow Depth 0.00 in    
Sea Level Pressure  
Sea Level Pressure 29.75 in    
Wind  
Wind Speed 10 mph (SE)    
Max Wind Speed 23 mph    
Max Gust Speed 33 mph    
Visibility 4 miles    
Events Fog , Rain    
T = Trace of Precipitation, MM = Missing Value Source: NWS Daily Summary

Daily Weather History Graph

Daily Weather History Graph

Search for Another Location

Airport or City:

Trip Planner

Search our weather history database for the weather conditions in past years. The results will help you decide how hot, cold, wet, or windy it might be!

Date:

Astronomy

Oct. 13, 2014 Rise Set
Actual Time 7:06 AM CDT 6:17 PM CDT
Civil Twilight 6:38 AM CDT 6:45 PM CDT
Nautical Twilight 6:06 AM CDT 7:18 PM CDT
Astronomical Twilight 5:33 AM CDT 7:50 PM CDT
Moon 10:25 PM CDT (10/13) 12:24 PM CDT (10/13)
Length of Visible Light 12h 07m
Length of Day
11h 10m
Waning Gibbous, 70% of the Moon is Illuminated
Oct 13
Waning Gibbous
Oct 15
Last Quarter
Oct 23
New
Oct 30
First Quarter
Nov 6
Full

Hourly Weather History & Observations

Time (CDT) Temp. Dew Point Humidity Pressure Visibility Wind Dir Wind Speed Gust Speed Precip Events Conditions
12:54 AM 55.0 °F 54.0 °F 96% 29.88 in 4.0 mi South 4.6 mph - 0.00 in Fog Patches of Fog
1:32 AM 55.0 °F 54.0 °F 96% 29.88 in 3.0 mi South 3.5 mph - 0.00 in Fog Light Drizzle
1:46 AM 55.0 °F 53.1 °F 93% 29.88 in 2.5 mi South 4.6 mph - 0.00 in Fog Light Drizzle
1:54 AM 55.0 °F 53.1 °F 93% 29.88 in 3.0 mi South 5.8 mph - 0.00 in Fog Light Drizzle
2:54 AM 55.0 °F 53.1 °F 93% 29.87 in 4.0 mi SSW 3.5 mph - 0.00 in Fog Light Drizzle
3:40 AM 55.0 °F 54.0 °F 96% 29.86 in 2.0 mi Calm Calm - 0.00 in Fog Overcast
3:54 AM 55.0 °F 54.0 °F 96% 29.86 in 1.2 mi Calm Calm - 0.00 in   Overcast
4:15 AM 55.0 °F 54.0 °F 96% 29.86 in 0.5 mi SSE 4.6 mph - N/A Fog Fog
4:54 AM 55.0 °F 54.0 °F 96% 29.86 in 1.0 mi SSE 3.5 mph - N/A   Overcast
5:15 AM 55.0 °F 54.0 °F 96% 29.86 in 2.0 mi South 4.6 mph - N/A Fog Overcast
5:54 AM 55.9 °F 54.0 °F 93% 29.84 in 2.0 mi East 3.5 mph - 0.00 in Fog Light Drizzle
6:23 AM 55.9 °F 54.0 °F 93% 29.84 in 2.0 mi NE 3.5 mph - 0.00 in Fog Light Drizzle
6:54 AM 55.0 °F 54.0 °F 96% 29.87 in 2.0 mi Calm Calm - 0.00 in Fog Overcast
7:17 AM 55.0 °F 54.0 °F 96% 29.87 in 1.2 mi South 3.5 mph - N/A   Overcast
7:25 AM 55.0 °F 54.0 °F 96% 29.88 in 1.2 mi SE 5.8 mph - N/A   Overcast
7:39 AM 55.0 °F 54.0 °F 96% 29.88 in 0.8 mi SE 5.8 mph - N/A   Overcast
7:54 AM 55.0 °F 53.1 °F 93% 29.90 in 0.8 mi SSE 8.1 mph - N/A   Overcast
8:24 AM 55.0 °F 54.0 °F 96% 29.90 in 1.0 mi SE 3.5 mph - N/A   Overcast
8:39 AM 55.0 °F 54.0 °F 96% 29.89 in 1.5 mi ESE 3.5 mph - N/A   Overcast
8:54 AM 55.4 °F 53.6 °F 94% 29.89 in 1.5 mi Calm Calm - N/A   Overcast
9:32 AM 57.0 °F 54.0 °F 89% 29.87 in 2.0 mi ESE 6.9 mph - N/A   Overcast
9:44 AM 57.0 °F 55.0 °F 93% 29.87 in 2.0 mi ESE 6.9 mph - N/A   Overcast
9:54 AM 57.0 °F 55.0 °F 93% 29.87 in 2.5 mi ESE 4.6 mph - N/A   Overcast
10:04 AM 57.9 °F 55.0 °F 90% 29.87 in 3.0 mi ESE 5.8 mph - N/A   Overcast
10:54 AM 60.1 °F 55.9 °F 86% 29.86 in 6.0 mi SE 11.5 mph - N/A   Overcast
11:20 AM 60.1 °F 55.9 °F 86% 29.84 in 7.0 mi East 8.1 mph - N/A   Overcast
11:32 AM 60.1 °F 55.9 °F 86% 29.83 in 7.0 mi East 9.2 mph - N/A   Overcast
11:54 AM 61.0 °F 55.9 °F 83% 29.82 in 7.0 mi ESE 11.5 mph - N/A   Overcast
12:19 PM 62.1 °F 55.9 °F 80% 29.82 in 7.0 mi SE 9.2 mph - N/A   Overcast
12:52 PM 62.6 °F 55.4 °F 77% 29.77 in 7.0 mi East 9.2 mph - N/A Rain Light Rain
12:54 PM 62.1 °F 55.9 °F 80% 29.76 in 7.0 mi East 6.9 mph - 0.00 in Rain Light Rain
1:28 PM 61.0 °F 55.9 °F 83% 29.76 in 5.0 mi ESE 6.9 mph - 0.00 in Rain Light Rain
1:54 PM 61.0 °F 57.0 °F 87% 29.73 in 3.0 mi East 10.4 mph - 0.05 in Rain Light Rain
2:43 PM 60.1 °F 57.0 °F 90% 29.68 in 2.0 mi ENE 11.5 mph - 0.13 in Rain Rain
2:54 PM 60.1 °F 57.0 °F 90% 29.69 in 2.5 mi East 10.4 mph - 0.15 in Rain Light Rain
3:07 PM 60.1 °F 57.0 °F 90% 29.66 in 2.0 mi ENE 16.1 mph - 0.05 in Rain Heavy Rain
3:14 PM 60.1 °F 57.9 °F 93% 29.66 in 1.5 mi ENE 12.7 mph - 0.09 in Rain Heavy Rain
3:31 PM 60.1 °F 57.9 °F 93% 29.66 in 1.0 mi East 12.7 mph - 0.25 in Rain Heavy Rain
3:40 PM 60.1 °F 57.9 °F 93% 29.66 in 1.0 mi East 15.0 mph - 0.37 in Rain Heavy Rain
3:54 PM 60.1 °F 57.9 °F 93% 29.64 in 1.0 mi East 15.0 mph - 0.42 in Rain Rain
4:25 PM 61.0 °F 59.0 °F 93% 29.62 in 1.0 mi East 13.8 mph - 0.02 in Rain Light Rain
4:41 PM 62.1 °F 60.1 °F 93% 29.60 in 1.0 mi East 16.1 mph - 0.04 in Rain Rain
4:54 PM 62.1 °F 60.1 °F 93% 29.60 in 1.0 mi East 13.8 mph - 0.15 in Rain Rain
5:12 PM 64.0 °F 61.0 °F 90% 29.59 in 2.0 mi SE 15.0 mph 25.3 mph 0.01 in Rain Light Rain
5:48 PM 66.2 °F 62.6 °F 88% 29.58 in 4.0 mi SE 15.0 mph 21.9 mph 0.03 in Rain Light Rain
5:54 PM 66.0 °F 63.0 °F 90% 29.57 in 5.0 mi SSE 16.1 mph - 0.03 in Rain Light Rain
6:23 PM 66.9 °F 63.0 °F 87% 29.56 in 6.0 mi SSE 15.0 mph 23.0 mph 0.00 in Rain Light Rain
6:54 PM 66.9 °F 64.0 °F 90% 29.56 in 7.0 mi SSE 15.0 mph - 0.01 in Rain Light Rain
7:54 PM 66.9 °F 64.0 °F 90% 29.54 in 8.0 mi SSE 17.3 mph - 0.01 in   Overcast
8:33 PM 66.9 °F 63.0 °F 87% 29.55 in 8.0 mi South 19.6 mph 25.3 mph N/A   Overcast
8:54 PM 66.9 °F 63.0 °F 87% 29.54 in 8.0 mi South 17.3 mph - N/A   Overcast
9:54 PM 66.0 °F 62.1 °F 87% 29.52 in 10.0 mi SSE 15.0 mph - N/A   Overcast
10:54 PM 66.0 °F 62.1 °F 87% 29.48 in 10.0 mi SE 16.1 mph 23.0 mph N/A   Overcast
11:23 PM 66.0 °F 62.1 °F 87% 29.51 in 10.0 mi South 13.8 mph - N/A   Overcast
11:54 PM 66.0 °F 61.0 °F 84% 29.49 in 10.0 mi SSE 20.7 mph 31.1 mph N/A   Overcast